Change the Weather History Date:

Wednesday, July 10, 2013

  Actual Average Record
Temperature  
Mean Temperature 76 °F 75 °F  
Max Temperature 84 °F 86 °F 96 °F (1988)
Min Temperature 68 °F 64 °F 48 °F (1961)
Degree Days  
Heating Degree Days 0 0  
Month to date heating degree days 0 0  
Since 1 June heating degree days 0 11  
Since 1 July heating degree days 0 0  
Cooling Degree Days 11 10  
Month to date cooling degree days 96 97  
Year to date cooling degree days 397 376  
Since 1 June cooling degree days 325 303  
Growing Degree Days 25 (Base 50)    
Moisture  
Dew Point 70 °F    
Average Humidity 83    
Maximum Humidity 97    
Minimum Humidity 69    
Precipitation  
Precipitation 0.17 in 0.16 in 2.19 in (1965)
Month to date precipitation 2.77 1.47  
Year to date precipitation 35.83 22.76  
Snow  
Snow 0.00 in 0.00 in - ()
Month to date snowfall 0.0 0.0  
Since 1 June snowfall 0.0 0.0  
Since 1 July snowfall 0.0 0.0  
Snow Depth 0.00 in    
Sea Level Pressure  
Sea Level Pressure 30.02 in    
Wind  
Wind Speed 3 mph (SW)    
Max Wind Speed 16 mph    
Max Gust Speed 22 mph    
Visibility 9 miles    
Events Rain , Thunderstorm    
T = Trace of Precipitation, MM = Missing Value Source: NWS Daily Summary

Daily Weather History Graph

Daily Weather History Graph

Search for Another Location

Airport or City:

Trip Planner

Search our weather history database for the weather conditions in past years. The results will help you decide how hot, cold, wet, or windy it might be!

Date:

Astronomy

Jul. 10, 2013 Rise Set
Actual Time 6:20 AM EDT 8:49 PM EDT
Civil Twilight 5:50 AM EDT 9:19 PM EDT
Nautical Twilight 5:12 AM EDT 9:56 PM EDT
Astronomical Twilight 4:31 AM EDT 10:37 PM EDT
Moon 8:34 AM EDT (7/10) 10:04 PM EDT (7/10)
Length of Visible Light 15h 29m
Length of Day
14h 29m
Waxing Crescent, 5% of the Moon is Illuminated
Jul 10
Waxing Crescent
Jul 15
First Quarter
Jul 22
Full
Jul 29
Last Quarter
Aug 6
New

Hourly Weather History & Observations

Time (EDT) Temp. Heat Index Dew Point Humidity Pressure Visibility Wind Dir Wind Speed Gust Speed Precip Events Conditions
12:53 AM 72.0 °F - 68.0 °F 87% 30.06 in 10.0 mi Calm Calm - N/A   Mostly Cloudy
1:53 AM 71.1 °F - 68.0 °F 90% 30.04 in 10.0 mi Calm Calm - N/A   Mostly Cloudy
2:53 AM 70.0 °F - 68.0 °F 93% 30.04 in 7.0 mi Calm Calm - N/A   Clear
3:53 AM 70.0 °F - 68.0 °F 93% 30.02 in 9.0 mi Calm Calm - N/A   Partly Cloudy
4:53 AM 70.0 °F - 68.0 °F 93% 30.03 in 8.0 mi Calm Calm - N/A   Scattered Clouds
5:53 AM 70.0 °F - 68.0 °F 93% 30.03 in 9.0 mi Calm Calm - N/A   Scattered Clouds
6:24 AM 68.0 °F - 66.9 °F 96% 30.11 in 1.8 mi Calm Calm - N/A   Scattered Clouds
6:31 AM 68.0 °F - 66.9 °F 96% 30.11 in 4.0 mi Calm Calm - N/A   Scattered Clouds
6:53 AM 69.1 °F - 66.9 °F 93% 30.04 in 5.0 mi Calm Calm - N/A   Scattered Clouds
7:53 AM 71.1 °F - 68.0 °F 90% 30.05 in 10.0 mi Calm Calm - N/A   Scattered Clouds
8:58 AM 73.9 °F - 69.1 °F 85% 30.13 in 10.0 mi Calm Calm - N/A   Mostly Cloudy
9:53 AM 78.1 °F - 70.0 °F 76% 30.04 in 10.0 mi Calm Calm - N/A   Mostly Cloudy
10:53 AM 80.1 °F 83.2 °F 70.0 °F 71% 30.04 in 10.0 mi SSW 6.9 mph - N/A   Mostly Cloudy
11:53 AM 81.0 °F 84.4 °F 70.0 °F 69% 30.03 in 10.0 mi Variable 3.5 mph - N/A   Mostly Cloudy
12:00 PM 81.0 °F 84.9 °F 71.1 °F 72% 30.11 in 10.0 mi Calm Calm - N/A   Mostly Cloudy
12:20 PM 80.1 °F 83.6 °F 71.1 °F 74% 30.09 in 10.0 mi SSW 3.5 mph - N/A Thunderstorm Thunderstorm
12:25 PM 80.1 °F 83.6 °F 71.1 °F 74% 30.09 in 10.0 mi South 4.6 mph - N/A Thunderstorm Thunderstorm
12:53 PM 73.9 °F - 72.0 °F 93% 30.02 in 8.0 mi South 5.8 mph - 0.01 in Rain , Thunderstorm Light Thunderstorms and Rain
1:05 PM 73.9 °F - 70.0 °F 87% 30.09 in 1.5 mi SW 9.2 mph - 0.01 in Rain , Thunderstorm Heavy Thunderstorms and Rain
1:11 PM 73.0 °F - 70.0 °F 90% 30.08 in 3.0 mi South 8.1 mph - 0.13 in Rain , Thunderstorm Heavy Thunderstorms and Rain
1:43 PM 78.1 °F - 72.0 °F 81% 30.07 in 6.0 mi WSW 5.8 mph - 0.16 in Rain Light Rain
1:53 PM 81.0 °F 86.7 °F 75.0 °F 82% 29.99 in 10.0 mi SSW 6.9 mph - 0.16 in   Mostly Cloudy
2:53 PM 82.9 °F 88.0 °F 72.0 °F 69% 29.97 in 10.0 mi SSW 5.8 mph - N/A Thunderstorm Thunderstorm
3:37 PM 81.0 °F 85.2 °F 72.0 °F 74% 30.02 in 10.0 mi North 5.8 mph - N/A   Mostly Cloudy
3:53 PM 82.0 °F 86.7 °F 72.0 °F 71% 29.93 in 10.0 mi North 3.5 mph - N/A   Mostly Cloudy
4:07 PM 82.9 °F 88.0 °F 72.0 °F 69% 30.01 in 10.0 mi North 3.5 mph - N/A Thunderstorm Thunderstorm
4:35 PM 82.9 °F 88.8 °F 73.0 °F 72% 30.00 in 10.0 mi North 3.5 mph - N/A   Mostly Cloudy
4:53 PM 82.9 °F 88.8 °F 73.0 °F 72% 29.92 in 10.0 mi North 3.5 mph - N/A   Mostly Cloudy
5:26 PM 79.0 °F - 71.1 °F 77% 30.00 in 10.0 mi NNW 9.2 mph 21.9 mph N/A Thunderstorm Thunderstorm
5:53 PM 75.9 °F - 69.1 °F 79% 29.93 in 9.0 mi NW 9.2 mph - 0.00 in Rain , Thunderstorm Light Thunderstorms and Rain
6:53 PM 77.0 °F - 69.1 °F 76% 29.95 in 10.0 mi ESE 3.5 mph - 0.00 in Rain , Thunderstorm Light Thunderstorms and Rain
7:12 PM 75.0 °F - 70.0 °F 84% 30.02 in 10.0 mi South 5.8 mph - 0.00 in Rain Light Rain
7:30 PM 73.9 °F - 68.0 °F 82% 30.03 in 10.0 mi South 8.1 mph - 0.00 in Thunderstorm Thunderstorm
7:53 PM 72.0 °F - 66.9 °F 84% 29.96 in 10.0 mi SSW 5.8 mph - 0.00 in   Overcast
8:53 PM 72.0 °F - 66.9 °F 84% 30.03 in 10.0 mi SE 3.5 mph - N/A   Overcast
9:14 PM 71.1 °F - 66.9 °F 87% 30.03 in 10.0 mi Calm Calm - N/A Thunderstorm Thunderstorm
9:45 PM 72.0 °F - 68.0 °F 87% 30.03 in 10.0 mi Calm Calm - 0.00 in Rain Light Rain
9:53 PM 71.1 °F - 66.9 °F 87% 29.95 in 10.0 mi Calm Calm - 0.00 in Rain Light Rain
10:53 PM 71.1 °F - 68.0 °F 90% 29.91 in 10.0 mi South 3.5 mph - 0.00 in   Mostly Cloudy
11:53 PM 70.0 °F - 68.0 °F 93% 29.93 in 10.0 mi NNW 4.6 mph - N/A   Mostly Cloudy